Location: Forli
(44.2227°N, 12.0407°E)
Time: 00:52:10
(UTC+02:00)

PCSat - Pass Details

Date: 21 April 2026
Orbit: 781 x 790 km, 67.1° (Epoch: 19 May)

Event Time Altitude Azimuth Distance (km) Brightness Sun altitude
Rises 23:11:46 0° 330° (NNW) 3,294 14.1 -27.6°
Reaches altitude 10° 23:14:12 10° 332° (NNW) 2,361 13.0 -27.8°
Enters shadow 23:19:15 68° 28° (NNE) 851 9.7 -28.3°
